{"data":{"norad_id":52145,"intl_designator":"2022-030A","name":"MERIDIAN 10","alt_names":[],"object_type":"PAYLOAD","status":"ACTIVE","operator":null,"country":"CIS","launch_date":"2022-03-22","launch_site_code":"PLMSC","launch_vehicle":null,"mission":null,"orbit_class":"UNKNOWN","rcs_meters":null,"size_class":null,"mass_kg":null,"dimensions":null,"purposes":[],"wikipedia_slug":null,"has_3d_model":false,"image_url":null,"decayed_at":null,"tle_current":{"epoch":"2026-09-20T04:20:12.156000Z","epoch_age_seconds":148393,"freshness":"FRESH","line1":"1 52145U 22030A   26263.18069625  .00000115  00000+0  00000+0 0  9995","line2":"2 52145  62.6779 130.4859 6811620 272.8213  17.4793  2.00593372 32934","mean_motion":2.00593372,"eccentricity":0.681162,"inclination_deg":62.6779,"raan_deg":130.4859,"arg_perigee_deg":272.8213,"mean_anomaly_deg":17.4793,"bstar":0,"rev_number":3293,"period_min":717.87017967872,"perigee_km":2089.473346509,"apogee_km":38269.692761063,"semimajor_km":26557.720053786,"source":"CELESTRAK","updated_at":"2026-09-21T09:00:08.490323Z"}}}